• Join FlightAware (Why Join?)
  • Login
  • US Flag 
05:56AM EDT


 

Airport Tracker/Info


-or-


 

Live Flight TrackerFlight Track Log ✈ N24BK ✈ 13-Jun-2013 ✈ KLRO - KMHP

Flight Track Log - Related Links

Times and Time Zones

All times are in EDT time to prevent confusion due to time zone crossing. See the N24BK flight status page for this flight to view local times or setup timezone preferences in your user account.

Time Position Orientation Groundspeed Altitude Reporting Facility
EDT Latitude Longitude Course Direction KTS MPH feet Rate Location/Type
05:22PM 32.8172 -80.7939 249° West 141 162 6,400  Level Jacksonville Center
05:23PM 32.8033 -80.8364 249° West 146 168 6,500  Climbing Jacksonville Center
05:24PM 32.7872 -80.8811 247° West 151 174 6,400 -60 Descending Jacksonville Center
05:25PM 32.7733 -80.9211 248° West 151 174 6,400  Level Jacksonville Center
05:26PM 32.7594 -80.9633 249° West 151 174 6,400  Level Jacksonville Center
05:27PM 32.7433 -81.0056 246° West 151 174 6,500  Climbing Jacksonville Center
05:28PM 32.7272 -81.0503 247° West 151 174 6,400 -60 Descending Jacksonville Center
05:29PM 32.7133 -81.0928 249° West 151 174 6,400  Level Jacksonville Center
05:30PM 32.6992 -81.1375 249° West 151 174 6,500  Climbing Jacksonville Center
05:31PM 32.6831 -81.1822 247° West 158 182 6,400 -60 Descending Jacksonville Center
05:32PM 32.6692 -81.2244 249° West 152 175 6,400  Level Jacksonville Center
05:33PM 32.6550 -81.2692 249° West 147 169 6,400  Level Jacksonville Center
05:34PM 32.6408 -81.3061 246° West 147 169 6,400  Level Jacksonville Center
05:35PM 32.6228 -81.3558 247° West 147 169 6,400  Level Jacksonville Center
05:36PM 32.6067 -81.4006 247° West 153 176 6,400  Level Jacksonville Center
05:37PM 32.5925 -81.4453 249° West 153 176 6,400  Level Jacksonville Center
05:38PM 32.5803 -81.4822 249° West 153 176 6,400  Level Jacksonville Center
05:39PM 32.5642 -81.5244 246° West 153 176 6,400  Level Jacksonville Center
05:40PM 32.5481 -81.5742 249° West 148 170 6,400  Level Jacksonville Center
05:41PM 32.5358 -81.6111 249° West 148 170 6,400  Level Jacksonville Center
05:42PM 32.5217 -81.6581 250° West 148 170 6,400  Level Jacksonville Center
05:43PM 32.5053 -81.7028 247° West 153 176 6,500 60 Climbing Jacksonville Center